TimeCDT,TemperatureF,Dew PointF,Humidity,Sea Level PressureIn,VisibilityMPH,Wind Direction,Wind SpeedMPH,Gust SpeedMPH,PrecipitationIn,Events,Conditions,WindDirDegrees,DateUTC
12:15 AM,75.2,73.4,94,29.96,10.0,Calm,Calm,-,N/A,,Clear,0,2013-10-04 05:15:00
12:35 AM,75.2,73.4,94,29.96,10.0,Calm,Calm,-,N/A,,Clear,0,2013-10-04 05:35:00
12:55 AM,75.2,71.6,89,29.95,10.0,Calm,Calm,-,N/A,,Clear,0,2013-10-04 05:55:00
1:15 AM,73.4,71.6,94,29.95,10.0,Calm,Calm,-,N/A,,Clear,0,2013-10-04 06:15:00
1:35 AM,73.4,71.6,94,29.96,10.0,Calm,Calm,-,N/A,,Clear,0,2013-10-04 06:35:00
1:55 AM,73.4,71.6,94,29.96,10.0,Calm,Calm,-,N/A,,Clear,0,2013-10-04 06:55:00
2:15 AM,73.4,71.6,94,29.96,10.0,Calm,Calm,-,N/A,,Clear,0,2013-10-04 07:15:00
2:35 AM,73.4,71.6,94,29.96,10.0,Calm,Calm,-,N/A,,Clear,0,2013-10-04 07:35:00
2:55 AM,73.4,71.6,94,29.96,10.0,Calm,Calm,-,N/A,,Clear,0,2013-10-04 07:55:00
3:15 AM,73.4,71.6,94,29.95,10.0,Calm,Calm,-,N/A,,Clear,0,2013-10-04 08:15:00
3:35 AM,71.6,71.6,100,29.95,9.0,Calm,Calm,-,N/A,,Clear,0,2013-10-04 08:35:00
3:55 AM,71.6,71.6,100,29.95,7.0,Calm,Calm,-,N/A,,Clear,0,2013-10-04 08:55:00
4:15 AM,71.6,71.6,100,29.95,7.0,Calm,Calm,-,N/A,,Clear,0,2013-10-04 09:15:00
4:35 AM,71.6,71.6,100,29.95,7.0,Calm,Calm,-,N/A,,Clear,0,2013-10-04 09:35:00
4:55 AM,71.6,71.6,100,29.95,7.0,Calm,Calm,-,N/A,,Clear,0,2013-10-04 09:55:00
5:15 AM,71.6,71.6,100,29.95,6.0,Calm,Calm,-,N/A,,Clear,0,2013-10-04 10:15:00
5:35 AM,71.6,71.6,100,29.96,6.0,Calm,Calm,-,N/A,,Clear,0,2013-10-04 10:35:00
5:55 AM,71.6,71.6,100,29.96,5.0,Calm,Calm,-,N/A,,Clear,0,2013-10-04 10:55:00
6:15 AM,71.6,71.6,100,29.96,5.0,Calm,Calm,-,N/A,,Clear,0,2013-10-04 11:15:00
6:35 AM,71.6,71.6,100,29.97,5.0,Calm,Calm,-,N/A,,Clear,0,2013-10-04 11:35:00
6:55 AM,71.6,71.6,100,29.97,5.0,Calm,Calm,-,N/A,,Clear,0,2013-10-04 11:55:00
7:15 AM,71.6,71.6,100,29.97,0.2,Calm,Calm,-,N/A,Fog,Fog,0,2013-10-04 12:15:00
7:35 AM,71.6,69.8,94,29.97,0.2,North,-9999.0,-,N/A,Fog,Fog,0,2013-10-04 12:35:00
7:55 AM,71.6,71.6,100,29.97,0.2,North,-9999.0,-,N/A,Fog,Fog,0,2013-10-04 12:55:00
8:15 AM,71.6,71.6,100,29.97,1.0,North,-9999.0,-,N/A,,Mostly Cloudy,0,2013-10-04 13:15:00
8:35 AM,73.4,71.6,94,29.98,4.0,North,-9999.0,-,N/A,,Clear,0,2013-10-04 13:35:00
8:55 AM,73.4,73.4,100,29.98,7.0,North,-9999.0,-,N/A,,Partly Cloudy,0,2013-10-04 13:55:00
9:15 AM,73.4,73.4,100,29.98,10.0,North,-9999.0,-,N/A,,Clear,0,2013-10-04 14:15:00
9:35 AM,75.2,73.4,94,29.99,10.0,North,-9999.0,-,N/A,,Clear,0,2013-10-04 14:35:00
9:55 AM,78.8,73.4,83,29.99,10.0,North,-9999.0,-,N/A,,Partly Cloudy,0,2013-10-04 14:55:00
10:15 AM,78.8,71.6,78,29.99,10.0,North,-9999.0,-,N/A,,Partly Cloudy,0,2013-10-04 15:15:00
10:35 AM,80.6,71.6,74,29.99,10.0,North,-9999.0,-,N/A,,Clear,0,2013-10-04 15:35:00
10:55 AM,82.4,71.6,70,29.98,10.0,North,-9999.0,-,N/A,,Partly Cloudy,0,2013-10-04 15:55:00
11:15 AM,84.2,71.6,66,29.98,10.0,North,-9999.0,-,N/A,,Partly Cloudy,0,2013-10-04 16:15:00
11:35 AM,84.2,69.8,62,29.98,10.0,North,-9999.0,-,N/A,,Clear,0,2013-10-04 16:35:00
11:55 AM,84.2,71.6,66,29.98,10.0,North,-9999.0,-,N/A,,Clear,0,2013-10-04 16:55:00
12:15 PM,84.2,69.8,62,29.97,10.0,North,-9999.0,-,N/A,,Partly Cloudy,0,2013-10-04 17:15:00
12:35 PM,86.0,69.8,58,29.97,10.0,North,-9999.0,-,N/A,,Partly Cloudy,0,2013-10-04 17:35:00
12:55 PM,86.0,69.8,58,29.96,10.0,North,-9999.0,-,N/A,,Partly Cloudy,0,2013-10-04 17:55:00
1:15 PM,86.0,69.8,58,29.96,10.0,North,-9999.0,-,N/A,,Clear,0,2013-10-04 18:15:00
1:35 PM,87.8,69.8,55,29.95,10.0,North,-9999.0,-,N/A,,Partly Cloudy,0,2013-10-04 18:35:00
1:55 PM,87.8,68.0,52,29.94,10.0,North,-9999.0,-,N/A,,Partly Cloudy,0,2013-10-04 18:55:00
2:15 PM,86.0,69.8,58,29.93,10.0,North,-9999.0,-,N/A,,Partly Cloudy,0,2013-10-04 19:15:00
2:35 PM,87.8,69.8,55,29.93,10.0,North,-9999.0,-,N/A,,Partly Cloudy,0,2013-10-04 19:35:00
2:55 PM,86.0,69.8,58,29.92,10.0,North,-9999.0,-,N/A,,Clear,0,2013-10-04 19:55:00
3:15 PM,89.6,69.8,52,29.92,10.0,North,-9999.0,-,N/A,,Clear,0,2013-10-04 20:15:00
3:35 PM,87.8,69.8,55,29.91,10.0,North,-9999.0,-,N/A,,Clear,0,2013-10-04 20:35:00
3:55 PM,87.8,69.8,55,29.91,10.0,North,-9999.0,-,N/A,,Clear,0,2013-10-04 20:55:00
4:15 PM,89.6,68.0,49,29.91,10.0,North,-9999.0,-,N/A,,Clear,0,2013-10-04 21:15:00
4:35 PM,89.6,68.0,49,29.91,10.0,Calm,Calm,-,N/A,,Partly Cloudy,0,2013-10-04 21:35:00
4:55 PM,89.6,68.0,49,29.91,10.0,Calm,Calm,-,N/A,,Scattered Clouds,0,2013-10-04 21:55:00
5:15 PM,87.8,68.0,52,29.91,10.0,Calm,Calm,-,N/A,,Partly Cloudy,0,2013-10-04 22:15:00
5:35 PM,87.8,69.8,55,29.91,10.0,Calm,Calm,-,N/A,,Clear,0,2013-10-04 22:35:00
5:55 PM,87.8,69.8,55,29.91,10.0,Calm,Calm,-,N/A,,Clear,0,2013-10-04 22:55:00
6:15 PM,86.0,69.8,58,29.91,10.0,Calm,Calm,-,N/A,,Clear,0,2013-10-04 23:15:00
6:35 PM,84.2,69.8,62,29.91,10.0,Calm,Calm,-,N/A,,Clear,0,2013-10-04 23:35:00
6:55 PM,84.2,69.8,62,29.92,10.0,Calm,Calm,-,N/A,,Clear,0,2013-10-04 23:55:00
7:15 PM,82.4,69.8,66,29.92,10.0,Calm,Calm,-,N/A,,Clear,0,2013-10-05 00:15:00
7:35 PM,80.6,69.8,70,29.92,10.0,Calm,Calm,-,N/A,,Clear,0,2013-10-05 00:35:00
7:55 PM,78.8,71.6,78,29.93,10.0,Calm,Calm,-,N/A,,Clear,0,2013-10-05 00:55:00
8:15 PM,80.6,69.8,70,29.93,10.0,Calm,Calm,-,N/A,,Clear,0,2013-10-05 01:15:00
8:35 PM,80.6,69.8,70,29.94,10.0,Calm,Calm,-,N/A,,Clear,0,2013-10-05 01:35:00
8:55 PM,80.6,71.6,74,29.95,10.0,Calm,Calm,-,N/A,,Clear,0,2013-10-05 01:55:00
9:15 PM,80.6,71.6,74,29.95,10.0,Calm,Calm,-,N/A,,Clear,0,2013-10-05 02:15:00
9:35 PM,78.8,73.4,83,29.96,10.0,Calm,Calm,-,N/A,,Clear,0,2013-10-05 02:35:00
9:55 PM,78.8,73.4,83,29.96,10.0,Calm,Calm,-,N/A,,Clear,0,2013-10-05 02:55:00
10:15 PM,78.8,73.4,83,29.96,10.0,Calm,Calm,-,N/A,,Clear,0,2013-10-05 03:15:00
10:35 PM,78.8,73.4,83,29.97,10.0,Calm,Calm,-,N/A,,Clear,0,2013-10-05 03:35:00
10:55 PM,78.8,73.4,83,29.96,10.0,Calm,Calm,-,N/A,,Clear,0,2013-10-05 03:55:00
11:15 PM,78.8,73.4,83,29.97,10.0,Calm,Calm,-,N/A,,Clear,0,2013-10-05 04:15:00
11:35 PM,77.0,73.4,89,29.96,10.0,Calm,Calm,-,N/A,,Clear,0,2013-10-05 04:35:00
11:55 PM,77.0,73.4,89,29.96,10.0,Calm,Calm,-,N/A,,Clear,0,2013-10-05 04:55:00